DECAYED

CZ-6A DEB, 61478 (Decayed)

Orbit data source: Space-Track

CZ-6A DEB, 61478 was space debris in LEO originally from a launch on Tue, 06 Aug 2024 UTC launched from the Taiyaun Space Center, China (TSC). Debris objects in space refer to the collection of defunct objects orbiting the Earth. Examples of debris include non-operational satellites, rocket bodies, and fragments generated from explosions, collisions, or faulty payload assembly.

Loading next visibility...
Identifier
61478, 2024-140AAL
Orbit
Decayed
Country
Flag of CNCN / PRC
Related business
Manufacturer
SAST
Mission
Decayed spacecraft
Bus & Motor
Unknown
Mass
Unknown
Launch date (UTC)
2024-08-06 (2 years ago)
Launch vehicle
Unknown
Launch site
Taiyaun Space Center, China (TSC)
Object type
Payload
Rocket body
Debris
Shape & HBR
Unknown shape, 0.1 m
Radar Cross Section
Small (<0.1 m²)

Expand to show TLE details & history
Last TLE update: 7 months ago

TLE from 7 months ago
0 CZ-6A DEB
1 61478U 24140AAL 25265.12727352  .05011637  00000-0  20778-1 0  9994
2 61478  89.0236 302.9295 0006825 293.6987  66.3576 15.81866299 57203
Epoch: 2025-09-22T03:03Z
TLE epoch observation values (Epoch: 2025-09-22T03:03:16.432Z)
Latitude
0.00006°
Longitude
-104.12489°
Altitude
326.612 km
Speed
7.713 km/s
True Right ascension
20h 11m 43s
True Declination
0° 00' 00"
Sunlit
Object was in full shadow at epoch
Visualization orbit readout
Latitude
Unknown
Longitude
Unknown
Altitude
Unknown
Speed
Unknown
Apparent Right ascension
Unknown
Apparent Declination
Unknown
Sunlit
N/A
Visualization observer readout
Local Sidereal Time
06:34:27
Azimuth
Unknown
Elevation
Unknown
Doppler factor
Unknown
Orbital elements
Apogee altitude
326.459 km
Perigee altitude
317.313 km
Semi-major axis
6,700.023 km
Eccentricity
0.00068
Inclination
89.0236°
RAAN
302.9295°
Arg. of periapsis
293.6987°
True anomaly
66.42927°
Mean anomaly
66.3576°
Eccentric anomaly
66.39343°
Mean motion
3.95757 °/min
Orbital period
90.96 mins
BSTAR
0.020778
Loading maneuver chart data...
Computing Atmospheric mass density...
Loading historical data...
Loading historical data...
Loading historical data...
Loading historical data...
Loading historical data...
Loading historical data...
Loading historical data...

Documentation

Showing up to 5 results
|